Fairfield, CA

6:36 PM PDT on April 29, 2017 (GMT -0700)
Travis Air Force Base

Weather History for KSUU - July, 2013

Change the Weather History Date:

Saturday, July 13, 2013

  Actual Average Record
Temperature  
Mean Temperature 74 °F -  
Max Temperature 91 °F 85 °F 97 °F (2016)
Min Temperature 56 °F 56 °F 53 °F (2001)
Cooling Degree Days 8    
Growing Degree Days 24 (Base 50)    
Moisture  
Dew Point 50 °F    
Average Humidity 57    
Maximum Humidity 93    
Minimum Humidity 13    
Precipitation  
Precipitation 0.00 in - - ()
Sea Level Pressure  
Sea Level Pressure 29.88 in    
Wind  
Wind Speed 18 mph (WSW)    
Max Wind Speed 24 mph    
Max Gust Speed 30 mph    
Visibility 10 miles    
Events      
Averages and records for this station are not official NWS values.
T = Trace of Precipitation, MM = Missing Value Source: NWS Daily Summary

Daily Weather History Graph

Daily Weather History Graph

Search for Another Location

Airport or City:

Trip Planner

Search our weather history database for the weather conditions in past years. The results will help you decide how hot, cold, wet, or windy it might be!

Date:

Astronomy

Jul. 13, 2013 Rise Set
Actual Time 5:55 AM PDT 8:31 PM PDT
Civil Twilight 5:24 AM PDT 9:02 PM PDT
Nautical Twilight 4:46 AM PDT 9:40 PM PDT
Astronomical Twilight 4:03 AM PDT 10:23 PM PDT
Moon 11:11 AM PDT (7/13) 11:20 PM PDT (7/13)
Length of Visible Light 15h 37m
Length of Day
14h 36m
Waxing Crescent, 26% of the Moon is Illuminated
Jul 13
Waxing Crescent
Jul 15
First Quarter
Jul 22
Full
Jul 29
Last Quarter
Aug 6
New

Hourly Weather History & Observations

Time (PDT) Temp. Dew Point Humidity Pressure Visibility Wind Dir Wind Speed Gust Speed Precip Events Conditions
12:55 AM 57.6 °F 53.6 °F 87% 29.83 in 10.0 mi WSW 24.2 mph 29.9 mph N/A   Clear
12:58 AM 57.6 °F 53.6 °F 87% 29.84 in 10.0 mi WSW 21.9 mph - N/A   Clear
1:58 AM 57.4 °F 53.6 °F 87% 29.85 in 10.0 mi WSW 21.9 mph - N/A   Clear
2:58 AM 57.7 °F 53.6 °F 86% 29.86 in 10.0 mi WSW 23.0 mph - N/A   Clear
3:58 AM 57.6 °F 53.2 °F 85% 29.86 in 10.0 mi WSW 18.4 mph - N/A   Clear
4:58 AM 57.0 °F 53.8 °F 89% 29.87 in 10.0 mi WSW 18.4 mph - N/A   Clear
5:58 AM 56.3 °F 54.3 °F 93% 29.89 in 10.0 mi WSW 16.1 mph - N/A   Clear
6:58 AM 57.9 °F 54.1 °F 87% 29.91 in 10.0 mi West 13.8 mph - N/A   Clear
7:58 AM 62.4 °F 53.8 °F 73% 29.91 in 10.0 mi WSW 13.8 mph - N/A   Clear
8:58 AM 67.8 °F 53.6 °F 60% 29.92 in 10.0 mi West 10.4 mph - N/A   Clear
9:58 AM 72.1 °F 51.8 °F 49% 29.91 in 10.0 mi WSW 11.5 mph - N/A   Clear
10:58 AM 76.6 °F 51.4 °F 41% 29.92 in 10.0 mi WSW 12.7 mph - N/A   Clear
11:58 AM 80.6 °F 49.8 °F 34% 29.91 in 10.0 mi West 10.4 mph - N/A   Clear
12:58 PM 84.0 °F 48.4 °F 29% 29.93 in 10.0 mi WSW 10.4 mph - N/A   Clear
1:58 PM 86.9 °F 44.1 °F 22% 29.91 in 10.0 mi WSW 13.8 mph - N/A   Clear
2:58 PM 89.2 °F 42.3 °F 19% 29.90 in 10.0 mi WSW 12.7 mph - N/A   Clear
3:58 PM 91.2 °F 36.7 °F 15% 29.88 in 10.0 mi WSW 13.8 mph - N/A   Clear
4:58 PM 91.9 °F 33.8 °F 13% 29.87 in 10.0 mi WSW 16.1 mph - N/A   Clear
5:58 PM 88.2 °F 50.2 °F 27% 29.86 in 10.0 mi WSW 17.3 mph - N/A   Clear
6:58 PM 82.0 °F 52.7 °F 36% 29.85 in 10.0 mi WSW 18.4 mph - N/A   Clear
7:58 PM 75.6 °F 53.8 °F 47% 29.86 in 10.0 mi SW 17.3 mph - N/A   Clear
8:58 PM 69.6 °F 52.5 °F 54% 29.87 in 10.0 mi SW 17.3 mph - N/A   Clear
9:58 PM 66.7 °F 51.4 °F 58% 29.89 in 10.0 mi WSW 18.4 mph - N/A   Clear
10:58 PM 63.9 °F 51.4 °F 64% 29.90 in 10.0 mi WSW 18.4 mph - N/A   Clear
11:58 PM 60.3 °F 53.1 °F 77% 29.90 in 10.0 mi WSW 19.6 mph 26.5 mph N/A   Clear